Silver Point, Tennessee
Current Conditions -  °F | °C
As of 9:55 PM on Wednesday 22 Oct 2014 (Local Time) from KSRB Reporting Station
Clear Clear  
Wind Chill: 41°   Ceiling: Unl
Heat Index: 45°   Visibility: 10mi
Dew Point: 39°   Wind: 6mph
Humidity: 81%   Direction: 70°ENE
Pressure: 30.22"   Gusts: NA
Location:  36.09°N, 85.73°W
Report Text: KSRB 230255Z AUTO 07005KT 10SM CLR 07/04 A3022 RMK
Loading
Personal Weather Stations






























Interactive Weather Map
Tropical Storm Tracking
New forecast layout! Learn more

10-Day Weather Forecast

Advertisements
Track Severe Weather on mobile